Lid_Strength_Index
1 1 1 -0 -0 1 0 -0 0 -1 -0 -1 -1 -0 0 -1 -0 -0 -0 -2 -2 -2 -2 -2 -2 -2 -2 -1 -1 -1 -1 -1 -1 -1 -1 -1 -1 -1 -1 -1 -1 -1 -1
0 1 1 0 -0 -0 -1 -1 0 -0 -0 -0 0 -1 -1 0 -0 -1 -1 -1 -2 -2 -2 -2 -2 -2 -2 -1 -1 -1 -1 -1 -1 -1 -1 -1 -1 -1 -1 -1 -1 -1 -1
0 0 1 0 1 0 0 0 0 -0 -0 0 1 -0 -1 -1 -1 -0 -1 -0 -1 -1 -2 -2 -2 -2 -2 -1 -1 -1 -1 -1 -1 -1 -1 -1 -1 -1 -2 -1 -1 -2 -2
0 0 0 0 1 1 0 1 1 0 0 1 1 0 1 -0 -1 -0 -0 -1 -0 -0 -1 -2 -2 -2 -1 -1 -1 -1 -1 -2 -2 -1 -1 -1 -1 -1 -1 -2 -2 -2 -1
0 0 0 0 0 1 1 0 0 1 1 1 1 1 0 0 -0 -1 -0 -0 -0 -0 -0 -1 -1 -2 -1 -1 -1 -1 -1 -2 -2 -1 -1 -1 -1 -1 -2 -2 -1 -1 -1
0 0 0 0 -0 1 1 1 1 1 1 2 1 1 1 1 0 1 -0 0 -0 -1 -1 -0 -0 -1 -2 -2 -2 -1 -1 -1 -1 -1 -1 -1 -1 -1 -1 -1 -1 -1 -1
0 0 1 0 1 2 2 2 2 1 1 1 2 2 1 0 1 2 1 0 0 -1 -1 -1 -0 -0 -0 -2 -2 -2 -1 -1 -1 -1 -1 -1 -1 -1 -1 -2 -2 -1 -1
0 0 1 1 1 1 2 3 2 2 2 2 3 4 5 3 3 2 0 0 0 -0 -0 -1 -0 0 0 -0 -1 -2 -1 -1 -1 -1 -1 -1 -1 -1 -1 -2 -2 -2 -1
0 0 0 0 1 1 2 2 2 2 4 3 3 3 5 6 5 2 2 1 1 1 1 0 -0 -1 -0 -1 -1 -1 -1 -1 -1 -1 -1 -1 -1 -1 -1 -1 -2 -2 -1
0 0 0 0 0 0 1 1 1 2 6 6 4 2 4 3 5 6 3 2 1 1 2 1 -0 -1 -0 -1 -1 -1 -1 -1 -1 -2 -1 -1 -1 -2 -1 -1 -1 -1 -1
0 0 1 0 0 0 1 1 1 2 2 3 3 3 3 3 3 5 6 4 2 1 1 0 -0 0 -0 -1 -0 -1 -1 -1 -1 -1 -1 -1 -1 -2 -2 -2 -2 -1 -2
0 0 0 1 0 0 1 1 1 1 2 1 2 2 3 3 4 4 5 4 4 2 1 1 1 0 -0 -0 -1 -1 -1 -1 -1 -1 -1 -1 -1 -2 -2 -1 -1 -1 -1
1 1 0 1 1 0 0 0 1 1 1 2 2 2 2 2 2 3 4 5 5 3 3 1 1 2 1 -0 -1 -1 -1 -0 -0 0 0 0 -1 -1 -2 -2 -1 -2 -1
1 0 0 0 1 0 0 0 1 1 1 1 2 2 2 2 2 3 3 4 5 5 4 3 2 0 -0 0 0 -1 0 1 0 1 1 1 0 -1 -2 -2 -2 -2 -1
0 0 0 0 1 0 0 1 2 1 1 2 2 1 1 1 1 3 2 2 4 6 5 3 3 0 1 -0 0 -0 -0 1 1 1 1 1 1 0 -0 -1 -1 -1 -1
1 1 1 1 1 1 1 2 1 1 2 1 1 1 1 1 1 2 2 2 2 4 5 3 2 1 1 -0 -1 -0 -0 0 1 1 1 1 1 1 0 -0 -0 0 0
1 2 2 2 2 3 3 2 1 1 1 2 2 1 1 1 1 1 2 2 2 3 4 3 2 1 1 1 0 0 -0 1 1 1 2 2 2 1 1 1 1 1 1
1 2 2 2 3 2 2 2 2 1 1 2 1 2 1 1 1 2 2 2 2 3 3 4 3 2 2 1 1 1 0 -0 0 0 2 2 2 2 2 2 2 2 2
1 2 2 2 2 2 2 2 1 1 1 2 1 1 1 1 2 1 2 2 2 2 2 3 3 2 2 2 2 1 1 1 -0 1 3 3 3 3 3 3 4 4 4
1 2 2 2 2 2 2 2 1 1 1 1 1 1 1 1 2 2 2 2 2 2 3 2 3 2 2 2 2 2 2 2 2 0 1 2 2 2 3 4 4 4 6
1 1 1 2 1 1 1 1 1 1 1 1 1 1 1 1 1 1 2 2 2 2 3 3 3 3 3 3 3 2 2 2 2 2 2 2 2 2 2 3 3 3 5
1 1 1 1 2 1 2 2 1 1 1 1 2 1 1 1 2 2 2 2 2 2 3 3 3 3 3 3 3 2 3 3 4 2 2 2 2 3 3 3 3 4 5
1 1 1 2 2 1 4 4 3 2 1 1 1 1 1 0 1 1 2 3 3 3 2 1 3 3 3 2 2 3 3 3 3 2 2 3 2 3 3 3 4 4 5
2 2 2 2 2 2 4 4 3 3 2 2 1 1 1 1 2 2 2 2 2 1 1 2 2 1 1 1 1 1 2 3 2 2 2 4 3 5 5 4 4 4 5
2 2 2 2 2 2 6 6 4 3 2 2 2 2 1 2 5 5 2 2 2 2 2 3 4 4 4 4 2 1 2 3 4 3 1 3 5 7 6 6 5 5 6
3 2 2 2 4 3 7 7 5 3 3 3 3 4 5 4 6 6 3 3 3 2 3 4 4 3 3 2 3 2 1 3 3 4 1 2 6 7 8 8 7 6 7